Fairfield, IL

10:27 AM CST on November 12, 2019 (GMT -0600)
Fairfield Municipal

Weather History for KFWC - October, 2019

Change the Weather History Date:

Sunday, October 20, 2019

  Actual Average (WUND) Record (WUND)
Temperature  
Mean Temperature 57 °F -  
Max Temperature 72 °F - - (-1)
Min Temperature 43 °F - - (-1)
Degree Days  
Heating Degree Days 8    
Growing Degree Days 7 (Base 50)    
Moisture  
Dew Point 51 °F    
Average Humidity 81    
Maximum Humidity 100    
Minimum Humidity 51    
Precipitation  
Precipitation 0.00 in - - ()
Sea Level Pressure  
Sea Level Pressure 29.86 in    
Wind  
Wind Speed 0 mph ()    
Max Wind Speed 4 mph    
Max Gust Speed -    
Visibility 9.8 miles    
Events      
Averages and records for this station are not official NWS values.
T = Trace of Precipitation, MM = Missing Value Source: Averaged Metar Reports

Daily Weather History Graph

Daily Weather History Graph

Search for Another Location

Airport or City:

Astronomy

Oct. 20, 2019 Rise Set
Actual Time 7:07 AM CDT 6:08 PM CDT
Civil Twilight 6:40 AM CDT 6:35 PM CDT
Nautical Twilight 6:09 AM CDT 7:06 PM CDT
Astronomical Twilight 5:38 AM CDT 7:37 PM CDT
Moon 11:20 PM CDT (10/20) 1:31 PM CDT (10/20)
Length of Visible Light 11h 55m
Length of Day
11h 01m
Waning Gibbous, 59% of the Moon is Illuminated
Oct 20
Waning Gibbous
Oct 21
Last Quarter
Oct 27
New
Nov 4
First Quarter
Nov 12
Full

Hourly Weather History & Observations

Time (CDT) Temp. Dew Point Humidity Pressure Visibility Wind Dir Wind Speed Gust Speed Precip Events Conditions
12:15 AM 50.7 °F 49.5 °F 95% 29.79 in 10.0 mi Calm Calm - N/A   Mostly Cloudy
12:35 AM 50.2 °F 48.7 °F 95% 29.79 in 10.0 mi Calm Calm - N/A   Mostly Cloudy
12:55 AM 49.6 °F 48.6 °F 96% 29.79 in 10.0 mi Calm Calm - N/A   Scattered Clouds
1:15 AM 47.8 °F 47.5 °F 99% 29.80 in 10.0 mi Calm Calm - N/A   Scattered Clouds
1:35 AM 48.2 °F 48.2 °F 100% 29.80 in 10.0 mi Calm Calm - N/A   Mostly Cloudy
1:55 AM 46.9 °F 46.9 °F 100% 29.80 in 10.0 mi Calm Calm - N/A   Scattered Clouds
2:15 AM 47.7 °F 47.7 °F 100% 29.81 in 10.0 mi Calm Calm - N/A   Mostly Cloudy
2:35 AM 48.6 °F 48.6 °F 100% 29.80 in 10.0 mi Calm Calm - N/A   Overcast
2:55 AM 49.6 °F 49.6 °F 100% 29.80 in 10.0 mi Calm Calm - N/A   Overcast
3:15 AM 48.9 °F 48.7 °F 99% 29.81 in 10.0 mi Calm Calm - N/A   Mostly Cloudy
3:35 AM 47.1 °F 47.1 °F 100% 29.81 in 10.0 mi Calm Calm - N/A   Scattered Clouds
3:55 AM 47.7 °F 47.7 °F 100% 29.81 in 10.0 mi Calm Calm - N/A   Mostly Cloudy
4:15 AM 48.6 °F 48.6 °F 100% 29.82 in 10.0 mi Calm Calm - N/A   Overcast
4:35 AM 48.4 °F 48.4 °F 100% 29.83 in 10.0 mi Calm Calm - N/A   Mostly Cloudy
4:55 AM 46.9 °F 46.9 °F 100% 29.84 in 10.0 mi Calm Calm - N/A   Scattered Clouds
5:15 AM 46.6 °F 46.4 °F 99% 29.84 in 10.0 mi Calm Calm - N/A   Clear
5:35 AM 45.9 °F 45.9 °F 100% 29.84 in 10.0 mi Calm Calm - N/A   Scattered Clouds
5:55 AM 44.8 °F 44.8 °F 100% 29.85 in 10.0 mi Calm Calm - N/A   Clear
6:15 AM 43.9 °F 43.9 °F 100% 29.86 in 7.0 mi Calm Calm - N/A   Clear
6:35 AM 43.5 °F 43.5 °F 100% 29.87 in 7.0 mi Calm Calm - N/A   Clear
6:55 AM 43.5 °F 43.5 °F 100% 29.87 in 4.0 mi Calm Calm - N/A   Clear
7:15 AM 44.4 °F 44.4 °F 100% 29.87 in 7.0 mi Calm Calm - N/A   Clear
7:35 AM 45.5 °F 45.5 °F 100% 29.88 in 10.0 mi Calm Calm - N/A   Clear
7:55 AM 46.6 °F 46.6 °F 100% 29.88 in 7.0 mi Calm Calm - N/A   Clear
8:15 AM 50.0 °F 49.6 °F 99% 29.89 in 10.0 mi Calm Calm - N/A   Clear
8:35 AM 53.2 °F 52.7 °F 98% 29.89 in 10.0 mi Calm Calm - N/A   Clear
8:55 AM 54.9 °F 52.7 °F 92% 29.90 in 10.0 mi Calm Calm - N/A   Clear
9:15 AM 56.8 °F 53.4 °F 88% 29.90 in 10.0 mi Calm Calm - N/A   Clear
9:35 AM 58.3 °F 53.4 °F 84% 29.91 in 10.0 mi NNW 3.5 mph - N/A   Clear
9:55 AM 59.9 °F 53.2 °F 79% 29.91 in 10.0 mi Calm Calm - N/A   Clear
10:15 AM 61.2 °F 53.2 °F 75% 29.91 in 10.0 mi Calm Calm - N/A   Clear
10:35 AM 62.4 °F 52.3 °F 70% 29.92 in 10.0 mi Calm Calm - N/A   Clear
10:55 AM 62.8 °F 52.3 °F 69% 29.92 in 10.0 mi Calm Calm - N/A   Scattered Clouds
11:15 AM 64.2 °F 52.3 °F 65% 29.92 in 10.0 mi Calm Calm - N/A   Mostly Cloudy
11:35 AM 64.4 °F 52.0 °F 64% 29.92 in 10.0 mi Calm Calm - N/A   Scattered Clouds
11:55 AM 65.8 °F 52.2 °F 61% 29.91 in 10.0 mi Calm Calm - N/A   Scattered Clouds
12:15 PM 66.6 °F 52.9 °F 61% 29.91 in 10.0 mi Calm Calm - N/A   Scattered Clouds
12:35 PM 67.1 °F 52.3 °F 59% 29.90 in 10.0 mi Calm Calm - N/A   Mostly Cloudy
12:55 PM 66.9 °F 52.2 °F 59% 29.89 in 10.0 mi Calm Calm - N/A   Overcast
1:15 PM 68.0 °F 52.3 °F 57% 29.89 in 10.0 mi Calm Calm - N/A   Mostly Cloudy
1:35 PM 69.3 °F 52.5 °F 55% 29.88 in 10.0 mi Calm Calm - N/A   Scattered Clouds
1:55 PM 69.1 °F 52.5 °F 55% 29.87 in 10.0 mi Calm Calm - N/A   Clear
2:15 PM 70.2 °F 52.3 °F 53% 29.86 in 10.0 mi South 3.5 mph - N/A   Clear
2:35 PM 70.5 °F 52.5 °F 53% 29.86 in 10.0 mi Calm Calm - N/A   Clear
2:55 PM 71.6 °F 52.7 °F 51% 29.86 in 10.0 mi South 3.5 mph - N/A   Clear
3:15 PM 71.6 °F 52.7 °F 51% 29.86 in 10.0 mi Calm Calm - N/A   Clear
3:35 PM 70.9 °F 52.2 °F 51% 29.86 in 10.0 mi Calm Calm - N/A   Scattered Clouds
3:55 PM 71.6 °F 52.3 °F 51% 29.86 in 10.0 mi Calm Calm - N/A   Overcast
4:15 PM 71.6 °F 52.7 °F 51% 29.86 in 10.0 mi Calm Calm - N/A   Overcast
4:35 PM 71.2 °F 52.9 °F 52% 29.85 in 10.0 mi Calm Calm - N/A   Mostly Cloudy
4:55 PM 70.2 °F 54.0 °F 56% 29.86 in 10.0 mi Calm Calm - N/A   Mostly Cloudy
5:15 PM 67.5 °F 54.9 °F 64% 29.86 in 10.0 mi Calm Calm - N/A   Mostly Cloudy
5:35 PM 65.8 °F 55.6 °F 69% 29.86 in 10.0 mi Calm Calm - N/A   Mostly Cloudy
5:55 PM 64.8 °F 55.8 °F 73% 29.85 in 10.0 mi Calm Calm - N/A   Overcast
6:15 PM 62.8 °F 55.2 °F 76% 29.85 in 10.0 mi Calm Calm - N/A   Overcast
6:35 PM 59.4 °F 54.0 °F 82% 29.85 in 10.0 mi Calm Calm - N/A   Scattered Clouds
6:55 PM 58.8 °F 54.5 °F 86% 29.86 in 10.0 mi Calm Calm - N/A   Scattered Clouds
7:15 PM 57.9 °F 55.0 °F 90% 29.86 in 10.0 mi Calm Calm - N/A   Scattered Clouds
7:35 PM 57.4 °F 54.5 °F 90% 29.86 in 10.0 mi Calm Calm - N/A   Mostly Cloudy
7:55 PM 57.6 °F 54.7 °F 90% 29.86 in 10.0 mi Calm Calm - N/A   Mostly Cloudy
8:15 PM 59.2 °F 53.8 °F 82% 29.85 in 10.0 mi Calm Calm - N/A   Overcast
8:35 PM 58.5 °F 51.4 °F 77% 29.86 in 10.0 mi Calm Calm - N/A   Scattered Clouds
8:55 PM 58.8 °F 51.1 °F 75% 29.85 in 10.0 mi Calm Calm - N/A   Clear
9:15 PM 57.2 °F 50.9 °F 79% 29.86 in 10.0 mi Calm Calm - N/A   Clear
9:35 PM 55.2 °F 50.5 °F 84% 29.86 in 10.0 mi Calm Calm - N/A   Clear
9:55 PM 54.5 °F 51.6 °F 90% 29.86 in 10.0 mi Calm Calm - N/A   Scattered Clouds
10:15 PM 57.2 °F 50.9 °F 79% 29.86 in 10.0 mi Calm Calm - N/A   Mostly Cloudy
10:35 PM 55.4 °F 50.4 °F 83% 29.85 in 10.0 mi Calm Calm - N/A   Scattered Clouds
10:55 PM 54.5 °F 49.6 °F 84% 29.84 in 10.0 mi Calm Calm - N/A   Clear
11:15 PM 57.2 °F 50.2 °F 77% 29.82 in 10.0 mi Calm Calm - N/A   Scattered Clouds
11:35 PM 57.0 °F 50.2 °F 78% 29.81 in 10.0 mi Calm Calm - N/A   Clear
11:55 PM 59.2 °F 51.6 °F 76% 29.79 in 10.0 mi ESE 3.5 mph - N/A   Scattered Clouds